Location: Binningen
(47.7924°N, 8.7261°E)
Time: 04:41:50
(UTC+00:00)

Cosmos 990 Rocket - Pass Details

Date: 17 May 2021
Orbit: 746 x 769 km, 74.0° (Epoch: 14 June)

Event Time Altitude Azimuth Distance (km) Brightness Sun altitude
Rises 20:37:01 0° 199° (SSW) 3,214 6.9 -13.3°
Reaches altitude 10° 20:39:22 10° 200° (SSW) 2,296 6.2 -13.5°
Maximum altitude 20:44:36 87° 111° (ESE) 775 4.0 -14.1°
Drops below altitude 10° 20:49:53 10° 23° (NNE) 2,321 6.9 -14.6°
Sets 20:52:17 0° 23° (NNE) 3,252 7.7 -14.8°
